Regional Weather Roundup
Issued by NWS Newport/Morehead, NC

Current Version | Previous Version | Graphics & Text | Print | Product List | Glossary Off
Versions: 1 2 3 4 5 6 7 8 9 10 11 12 13 14 15 16 17 18 19 20 21 22 23 24 25 26 27 28 29 30 31 32 33 34 35 36 37 38 39 40 41 42 43 44 45 46 47 48 49 50

000
ASUS42 KMHX 020012
RWRMHX
WEATHER ROUNDUP FOR EASTERN NORTH CAROLINA
NATIONAL WEATHER SERVICE NEWPORT/MOREHEAD CITY NC
800 PM EDT WED APR 01 2015

NOTE: "FAIR" INDICATES FEW OR NO CLOUDS BELOW 12,000 FEET
WITH NO SIGNIFICANT WEATHER AND/OR OBSTRUCTIONS TO VISIBILITY

NCZ015>017-031-032-045>047-102-103-020100-
NORTH COAST

CITY           SKY/WX    TMP DP  RH WIND       PRES   REMARKS
EDENTON        CLEAR     46  37  68 E8        30.23R
ELIZABETH CITY CLEAR     45  30  55 E6        30.24R
KITTY HAWK     CLEAR     41  34  75 E3        30.23R
MANTEO         CLEAR     42  33  70 E8        30.24S

$$

NCZ045>047-081-094-103-104-020100-
CENTRAL COAST

CITY           SKY/WX    TMP DP  RH WIND       PRES   REMARKS
FRISCO         CLEAR     41  30  65 NE5       30.24R
SWANQUARTER      N/A     46 N/A N/A E10       30.21R

$$

NCZ095-097-098-100-101-020100-
SOUTHERN COAST

CITY           SKY/WX    TMP DP  RH WIND       PRES   REMARKS
BEAUFORT       CLEAR     50  40  68 NE9       30.21R
CEDAR ISLAND     N/A     50 N/A N/A N14G22    30.27R
JACKSONVILLE   CLEAR     53  42  66 S6        30.19R
PINEY ISLAND   CLEAR    N/A N/A N/A NE16      30.22R
WILMINGTON     CLEAR     54  44  69 E7        30.20R


$$

NCZ011>013-027>030-043-044-078>080-089-090>093-098-020100-
COASTAL PLAIN

CITY           SKY/WX    TMP DP  RH WIND       PRES   REMARKS
AHOSKIE        CLEAR     50  30  46 CALM      30.21R
CLINTON        CLEAR     57  37  46 E3        30.19R
ELIZABETHTOWN  CLEAR     59  36  41 CALM      30.17R
GOLDSBORO      CLEAR     55  32  41 E3        30.17R
GREENVILLE     CLEAR     55  30  38 CALM      30.21R
HAVELOCK       CLEAR     51  40  65 E9        30.22R
KENANSVILLE    CLEAR     53  34  48 CALM      30.20R
KINSTON        CLEAR     54  32  43 CALM      30.20R
NEW BERN       CLEAR     54  37  52 E7        30.22R
RICHLANDS      CLEAR     54  30  40 CALM      30.20R
ROCKY MOUNT    CLEAR     53  33  46 E3        30.19R
WASHINGTON     CLEAR     53  32  44 E5        30.21R
WHITEVILLE     CLEAR     62  44  51 SE6       30.17R

$$

AMZ130-135-150-152-154-156-158-170-250-252-270-ANZ085-086-088-633-658-670-020100-
MARINE OBSERVATIONS

STATION/POSITION TIME  TEMP    WIND        PRES    WAVE   SWELL
                       AIR SEA DIR/SP/G            HT/PER HT/PER
                 (UTC) (F)     (DEG/KT/KT) (MB)    (FT/S) (FT/S)
CHESAPEAKE LIGHT 2300   42     150/  6/  6 1024.0
64 E VA BEACH    2350   46 53  350/  6/  8 1023.6    4/ 7   3/ 7
DUCK             2300   44 44  110/  5/  7 1022.8
2 E DUCK         2311      43                N/A     3/ 6
10 NE DUCK       NOT AVBL
OREGON INLET     2300   43 47   30/  7/ 10 1023.6
HATTERAS CG      2300   46 57   60/  7/ 11 1023.8
CAPE LOOKOUT     0000   53      40/ 18/ 21 1022.8
BEAUFORT LAB     2300   54 55   40/  7/ 12 1021.4
27 SE WRIGHTSVLE 2300   54 64   70/ 17/ 19 1023.1
5 SE WRIGHTSVLE  2300   56 56   90/ 16/ 17 1021.4
225 S CAPE HAT   2350   65 69   30/ 17/ 21 1019.7    6/ 8   3/11
41 SE CHARLESTON 2350   64 68   60/ 17/ 21 1019.8    7/ 7   2/11

$$



USA.gov is the U.S. government's official web portal to all federal, state and local government web resources and services.